TimeCST,TemperatureF,Dew PointF,Humidity,Sea Level PressureIn,VisibilityMPH,Wind Direction,Wind SpeedMPH,Gust SpeedMPH,PrecipitationIn,Events,Conditions,WindDirDegrees,DateUTC
12:15 AM,28.4,19.4,69,30.21,10.0,SE,3.5,-,N/A,,Clear,130,2013-02-02 06:15:00
12:35 AM,30.2,19.4,64,30.21,10.0,Calm,Calm,-,N/A,,Clear,0,2013-02-02 06:35:00
12:55 AM,28.4,19.4,69,30.21,10.0,Calm,Calm,-,N/A,,Clear,0,2013-02-02 06:55:00
1:15 AM,30.2,19.4,64,30.20,10.0,Calm,Calm,-,N/A,,Clear,0,2013-02-02 07:15:00
1:35 AM,30.2,19.4,64,30.20,10.0,Calm,Calm,-,N/A,,Clear,0,2013-02-02 07:35:00
1:55 AM,30.2,19.4,64,30.19,10.0,Calm,Calm,-,N/A,,Clear,0,2013-02-02 07:55:00
2:15 AM,30.2,19.4,64,30.19,10.0,Calm,Calm,-,N/A,,Clear,0,2013-02-02 08:15:00
2:35 AM,30.2,19.4,64,30.19,10.0,Calm,Calm,-,N/A,,Clear,0,2013-02-02 08:35:00
3:15 AM,28.4,19.4,69,30.19,10.0,Calm,Calm,-,N/A,,Clear,0,2013-02-02 09:15:00
3:35 AM,28.4,19.4,69,30.19,10.0,Calm,Calm,-,N/A,,Clear,0,2013-02-02 09:35:00
3:55 AM,26.6,19.4,74,30.19,10.0,Calm,Calm,-,N/A,,Clear,0,2013-02-02 09:55:00
4:15 AM,26.6,19.4,74,30.18,10.0,Calm,Calm,-,N/A,,Clear,0,2013-02-02 10:15:00
4:35 AM,24.8,21.2,86,30.18,10.0,Calm,Calm,-,N/A,,Clear,0,2013-02-02 10:35:00
4:55 AM,24.8,19.4,80,30.19,10.0,Calm,Calm,-,N/A,,Clear,0,2013-02-02 10:55:00
5:15 AM,23.0,21.2,93,30.18,10.0,Calm,Calm,-,N/A,,Clear,0,2013-02-02 11:15:00
5:35 AM,24.8,21.2,86,30.19,10.0,Calm,Calm,-,N/A,,Clear,0,2013-02-02 11:35:00
6:15 AM,23.0,19.4,86,30.20,10.0,Calm,Calm,-,N/A,,Clear,0,2013-02-02 12:15:00
6:35 AM,23.0,21.2,93,30.20,10.0,Calm,Calm,-,N/A,,Clear,0,2013-02-02 12:35:00
6:55 AM,23.0,21.2,93,30.21,10.0,Calm,Calm,-,N/A,,Clear,0,2013-02-02 12:55:00
7:15 AM,23.0,21.2,93,30.21,10.0,Calm,Calm,-,N/A,,Clear,0,2013-02-02 13:15:00
7:35 AM,23.0,21.2,93,30.21,10.0,Calm,Calm,-,N/A,,Clear,0,2013-02-02 13:35:00
7:55 AM,24.8,21.2,86,30.22,10.0,Calm,Calm,-,N/A,,Clear,0,2013-02-02 13:55:00
8:15 AM,28.4,23.0,80,30.23,10.0,Calm,Calm,-,N/A,,Clear,0,2013-02-02 14:15:00
8:35 AM,30.2,24.8,80,30.23,10.0,Calm,Calm,-,N/A,,Clear,0,2013-02-02 14:35:00
8:55 AM,32.0,23.0,69,30.23,10.0,Calm,Calm,-,N/A,,Clear,0,2013-02-02 14:55:00
9:15 AM,33.8,24.8,70,30.24,10.0,Calm,Calm,-,N/A,,Clear,0,2013-02-02 15:15:00
9:35 AM,37.4,24.8,60,30.24,10.0,Calm,Calm,-,N/A,,Clear,0,2013-02-02 15:35:00
9:55 AM,39.2,26.6,61,30.26,10.0,Calm,Calm,-,N/A,,Clear,0,2013-02-02 15:55:00
10:15 AM,41.0,26.6,57,30.27,10.0,West,3.5,-,N/A,,Clear,270,2013-02-02 16:15:00
10:35 AM,42.8,28.4,57,30.27,10.0,West,4.6,-,N/A,,Clear,260,2013-02-02 16:35:00
10:55 AM,44.6,28.4,53,30.27,10.0,WNW,6.9,-,N/A,,Clear,290,2013-02-02 16:55:00
11:15 AM,44.6,28.4,53,30.28,10.0,WNW,5.8,-,N/A,,Clear,290,2013-02-02 17:15:00
11:35 AM,46.4,28.4,50,30.27,10.0,North,4.6,-,N/A,,Clear,350,2013-02-02 17:35:00
11:55 AM,48.2,28.4,46,30.26,10.0,NW,5.8,-,N/A,,Clear,320,2013-02-02 17:55:00
12:15 PM,50.0,28.4,43,30.25,10.0,Calm,Calm,-,N/A,,Clear,0,2013-02-02 18:15:00
12:35 PM,50.0,30.2,47,30.25,10.0,NNW,3.5,-,N/A,,Clear,330,2013-02-02 18:35:00
12:55 PM,51.8,30.2,44,30.24,10.0,NW,5.8,-,N/A,,Clear,320,2013-02-02 18:55:00
1:15 PM,51.8,30.2,44,30.24,10.0,Calm,Calm,-,N/A,,Clear,0,2013-02-02 19:15:00
1:35 PM,53.6,30.2,41,30.23,10.0,Calm,Calm,-,N/A,,Clear,0,2013-02-02 19:35:00
1:55 PM,53.6,30.2,41,30.22,10.0,NNW,5.8,-,N/A,,Clear,330,2013-02-02 19:55:00
2:15 PM,55.4,30.2,38,30.22,10.0,NNW,8.1,-,N/A,,Clear,340,2013-02-02 20:15:00
2:35 PM,55.4,30.2,38,30.23,10.0,WNW,11.5,16.1,N/A,,Clear,300,2013-02-02 20:35:00
2:55 PM,53.6,30.2,41,30.23,10.0,WNW,10.4,-,N/A,,Clear,300,2013-02-02 20:55:00
3:15 PM,53.6,30.2,41,30.23,10.0,NNW,5.8,-,N/A,,Clear,340,2013-02-02 21:15:00
3:35 PM,53.6,30.2,41,30.23,10.0,WNW,6.9,-,N/A,,Clear,300,2013-02-02 21:35:00
3:55 PM,53.6,30.2,41,30.23,10.0,NW,6.9,-,N/A,,Clear,320,2013-02-02 21:55:00
4:15 PM,53.6,32.0,44,30.23,10.0,WNW,8.1,-,N/A,,Clear,290,2013-02-02 22:15:00
4:35 PM,53.6,30.2,41,30.24,10.0,WNW,6.9,-,N/A,,Clear,300,2013-02-02 22:35:00
4:55 PM,51.8,30.2,44,30.24,10.0,West,9.2,-,N/A,,Clear,280,2013-02-02 22:55:00
5:15 PM,51.8,30.2,44,30.24,10.0,West,5.8,-,N/A,,Clear,280,2013-02-02 23:15:00
5:35 PM,50.0,30.2,47,30.25,10.0,West,3.5,-,N/A,,Clear,270,2013-02-02 23:35:00
5:55 PM,46.4,30.2,53,30.25,10.0,Calm,Calm,-,N/A,,Clear,0,2013-02-02 23:55:00
6:15 PM,44.6,30.2,57,30.25,10.0,Calm,Calm,-,N/A,,Clear,0,2013-02-03 00:15:00
6:35 PM,42.8,30.2,61,30.24,10.0,Calm,Calm,-,N/A,,Clear,0,2013-02-03 00:35:00
6:55 PM,39.2,30.2,70,30.24,10.0,Calm,Calm,-,N/A,,Clear,0,2013-02-03 00:55:00
7:15 PM,35.6,30.2,81,30.25,10.0,Calm,Calm,-,N/A,,Clear,0,2013-02-03 01:15:00
7:35 PM,33.8,30.2,87,30.25,10.0,Calm,Calm,-,N/A,,Clear,0,2013-02-03 01:35:00
7:55 PM,33.8,30.2,87,30.25,10.0,Calm,Calm,-,N/A,,Clear,0,2013-02-03 01:55:00
8:15 PM,33.8,30.2,87,30.25,5.0,Calm,Calm,-,N/A,,Haze,0,2013-02-03 02:15:00
8:35 PM,32.0,30.2,93,30.25,10.0,Calm,Calm,-,N/A,,Clear,0,2013-02-03 02:35:00
8:55 PM,32.0,30.2,93,30.25,10.0,Calm,Calm,-,N/A,,Clear,0,2013-02-03 02:55:00
9:15 PM,32.0,28.4,87,30.25,10.0,Calm,Calm,-,N/A,,Clear,0,2013-02-03 03:15:00
9:35 PM,32.0,30.2,93,30.25,10.0,Calm,Calm,-,N/A,,Clear,0,2013-02-03 03:35:00
9:55 PM,32.0,28.4,87,30.25,10.0,Calm,Calm,-,N/A,,Clear,0,2013-02-03 03:55:00
10:15 PM,32.0,28.4,87,30.25,10.0,Calm,Calm,-,N/A,,Clear,0,2013-02-03 04:15:00
10:35 PM,32.0,28.4,87,30.25,10.0,Calm,Calm,-,N/A,,Clear,0,2013-02-03 04:35:00
10:55 PM,32.0,28.4,87,30.25,10.0,Calm,Calm,-,N/A,,Clear,0,2013-02-03 04:55:00
11:15 PM,32.0,28.4,87,30.25,10.0,Calm,Calm,-,N/A,,Clear,0,2013-02-03 05:15:00
11:35 PM,32.0,28.4,87,30.25,10.0,Calm,Calm,-,N/A,,Clear,0,2013-02-03 05:35:00
11:55 PM,30.2,28.4,93,30.25,10.0,Calm,Calm,-,N/A,,Clear,0,2013-02-03 05:55:00